Farmington, NM

10:23 PM MDT on September 24, 2016 (GMT -0600)
Four Corners Regional

Weather History for KFMN - February, 2014

Change the Weather History Date:

Monday, February 3, 2014

  Actual Average Record
Temperature  
Mean Temperature 32 °F -  
Max Temperature 41 °F 44 °F 55 °F (1986)
Min Temperature 24 °F 20 °F -2 °F (2011)
Degree Days  
Heating Degree Days 32    
Moisture  
Dew Point 22 °F    
Average Humidity 67    
Maximum Humidity 92    
Minimum Humidity 27    
Precipitation  
Precipitation 0.04 in - - ()
Sea Level Pressure  
Sea Level Pressure 29.87 in    
Wind  
Wind Speed 5 mph (ENE)    
Max Wind Speed 12 mph    
Max Gust Speed -    
Visibility 9 miles    
Events Snow    
Averages and records for this station are not official NWS values.
T = Trace of Precipitation, MM = Missing Value Source: NWS Daily Summary

Daily Weather History Graph

Daily Weather History Graph

Search for Another Location

Airport or City:

Trip Planner

Search our weather history database for the weather conditions in past years. The results will help you decide how hot, cold, wet, or windy it might be!

Date:

Astronomy

Feb. 03, 2014 Rise Set
Actual Time 7:13 AM MST 5:40 PM MST
Civil Twilight 6:46 AM MST 6:07 PM MST
Nautical Twilight 6:15 AM MST 6:38 PM MST
Astronomical Twilight 5:44 AM MST 7:09 PM MST
Moon 9:25 AM MST (2/3) 10:25 PM MST (2/3)
Length of Visible Light 11h 21m
Length of Day
10h 27m
Waxing Crescent, 20% of the Moon is Illuminated
Feb 3
Waxing Crescent
Feb 6
First Quarter
Feb 14
Full
Feb 22
Last Quarter
Mar 1
New

Hourly Weather History & Observations

Time (MST) Temp. Windchill Dew Point Humidity Pressure Visibility Wind Dir Wind Speed Gust Speed Precip Events Conditions
12:53 AM 30.0 °F 25.2 °F 18.0 °F 61% 29.98 in 10.0 mi East 4.6 mph - N/A   Overcast
1:53 AM 30.0 °F 24.1 °F 19.0 °F 64% 29.97 in 10.0 mi ESE 5.8 mph - N/A   Overcast
2:53 AM 28.9 °F - 19.0 °F 67% 29.95 in 10.0 mi Calm Calm - N/A   Overcast
3:53 AM 28.9 °F 23.9 °F 19.9 °F 69% 29.93 in 10.0 mi SE 4.6 mph - N/A   Overcast
4:53 AM 28.0 °F 21.7 °F 19.9 °F 72% 29.94 in 10.0 mi East 5.8 mph - N/A   Overcast
5:53 AM 27.0 °F 23.0 °F 19.0 °F 72% 29.95 in 10.0 mi ENE 3.5 mph - N/A   Clear
6:53 AM 25.0 °F 19.3 °F 19.0 °F 78% 29.96 in 10.0 mi NE 4.6 mph - N/A   Overcast
7:53 AM 27.0 °F 20.5 °F 21.0 °F 78% 29.96 in 10.0 mi ESE 5.8 mph - N/A   Mostly Cloudy
8:53 AM 30.9 °F 22.8 °F 21.9 °F 69% 29.95 in 10.0 mi East 9.2 mph - N/A   Partly Cloudy
9:53 AM 34.0 °F 25.5 °F 23.0 °F 64% 29.94 in 10.0 mi ENE 11.5 mph - N/A   Partly Cloudy
10:53 AM 37.0 °F 30.4 °F 21.9 °F 54% 29.92 in 10.0 mi East 9.2 mph - N/A   Mostly Cloudy
11:53 AM 39.0 °F 34.0 °F 19.9 °F 46% 29.87 in 10.0 mi East 6.9 mph - N/A   Partly Cloudy
12:53 PM 41.0 °F 39.0 °F 19.9 °F 43% 29.82 in 10.0 mi Variable 3.5 mph - N/A   Mostly Cloudy
1:53 PM 39.9 °F - 18.0 °F 41% 29.79 in 10.0 mi Calm Calm - N/A   Mostly Cloudy
2:53 PM 37.0 °F 29.8 °F 21.0 °F 52% 29.81 in 10.0 mi SSW 10.4 mph - N/A   Overcast
3:53 PM 37.9 °F - 19.9 °F 48% 29.79 in 10.0 mi Calm Calm - N/A   Mostly Cloudy
4:53 PM 37.0 °F 30.4 °F 25.0 °F 62% 29.80 in 10.0 mi North 9.2 mph - N/A   Partly Cloudy
5:53 PM 33.1 °F 26.9 °F 23.0 °F 66% 29.82 in 10.0 mi North 6.9 mph - N/A   Mostly Cloudy
6:53 PM 30.0 °F 25.2 °F 24.1 °F 79% 29.84 in 10.0 mi NNE 4.6 mph - N/A   Clear
7:53 PM 30.9 °F - 24.1 °F 76% 29.85 in 10.0 mi Calm Calm - N/A   Scattered Clouds
8:49 PM 30.2 °F - 26.6 °F 86% 29.79 in 10.0 mi Calm Calm - N/A   Overcast
8:53 PM 30.0 °F - 26.1 °F 85% 29.83 in 10.0 mi Calm Calm - N/A   Overcast
9:17 PM 30.9 °F - 26.1 °F 82% 29.79 in 9.0 mi Calm Calm - 0.00 in Snow Light Snow
9:53 PM 30.0 °F - 26.1 °F 85% 29.83 in 9.0 mi Calm Calm - 0.00 in   Overcast
10:53 PM 30.0 °F 26.5 °F 26.1 °F 85% 29.81 in 10.0 mi WNW 3.5 mph - 0.00 in   Overcast
11:34 PM 30.0 °F 25.2 °F 26.1 °F 85% 29.78 in 3.0 mi West 4.6 mph - 0.00 in Snow Light Snow
11:46 PM 30.0 °F 26.5 °F 27.0 °F 88% 29.78 in 4.0 mi West 3.5 mph - 0.00 in Snow Light Snow
11:53 PM 30.0 °F 25.2 °F 27.0 °F 88% 29.80 in 2.5 mi WSW 4.6 mph - 0.01 in Snow Light Snow
11:57 PM 28.9 °F 23.9 °F 27.0 °F 92% 29.78 in 3.0 mi WSW 4.6 mph - 0.00 in Snow Light Snow